Weather History for KRDM - February, 2014

Change the Weather History Date:

Wednesday, February 26, 2014

  Actual Average Record
Temperature  
Mean Temperature 28 °F 37 °F  
Max Temperature 29 °F 49 °F 64 °F (1970)
Min Temperature 26 °F 24 °F -7 °F (2011)
Degree Days  
Heating Degree Days 37 28  
Month to date heating degree days 900 778  
Since 1 July heating degree days 4730 4618  
Cooling Degree Days 0 0  
Month to date cooling degree days 0 0  
Year to date cooling degree days 0 0  
Moisture  
Dew Point 26 °F    
Average Humidity 96    
Maximum Humidity 100    
Minimum Humidity 92    
Precipitation  
Precipitation T in 0.03 in 0.21 in (2000)
Month to date precipitation 1.16 0.61  
Year to date precipitation 1.68 1.58  
Sea Level Pressure  
Sea Level Pressure 29.97 in    
Wind  
Wind Speed 5 mph (NW)    
Max Wind Speed 10 mph    
Max Gust Speed 12 mph    
Visibility 3 miles    
Events Fog , Rain    
T = Trace of Precipitation, MM = Missing Value Source: NWS Daily Summary

Daily Weather History Graph

Daily Weather History Graph

Search for Another Location

Airport or City:

Trip Planner

Search our weather history database for the weather conditions in past years. The results will help you decide how hot, cold, wet, or windy it might be!

Date:

Astronomy

Feb. 26, 2014 Rise Set
Actual Time 6:46 AM PST 5:48 PM PST
Civil Twilight 6:17 AM PST 6:18 PM PST
Nautical Twilight 5:43 AM PST 6:51 PM PST
Astronomical Twilight 5:10 AM PST 7:25 PM PST
Moon 4:41 AM PST (2/26) 3:05 PM PST (2/26)
Length of Visible Light 12h 00m
Length of Day
11h 02m
Waning Crescent, 9% of the Moon is Illuminated
Feb 26
Waning Crescent
Mar 1
New
Mar 8
First Quarter
Mar 16
Full
Mar 23
Last Quarter

Hourly Weather History & Observations

Time (PST) Temp. Windchill Dew Point Humidity Pressure Visibility Wind Dir Wind Speed Gust Speed Precip Events Conditions
12:13 AM 27.0 °F 17.3 °F 25.0 °F 92% 30.11 in 1.0 mi NNW 10.4 mph - N/A   Overcast
12:44 AM 27.0 °F 18.7 °F 25.0 °F 92% 30.10 in 0.5 mi NNW 8.1 mph - N/A Fog Light Freezing Fog
12:56 AM 27.0 °F 19.5 °F 25.0 °F 92% 30.17 in 0.8 mi NNW 6.9 mph - N/A   Mist
1:08 AM 27.0 °F 20.5 °F 25.0 °F 92% 30.09 in 1.2 mi NNW 5.8 mph - N/A   Overcast
1:22 AM 26.1 °F 17.6 °F 25.0 °F 96% 30.09 in 3.0 mi NNW 8.1 mph - N/A   Overcast
1:56 AM 26.1 °F 17.6 °F 25.0 °F 96% 30.16 in 4.0 mi NW 8.1 mph - N/A   Overcast
2:20 AM 26.1 °F 18.4 °F 25.0 °F 96% 30.07 in 2.0 mi NW 6.9 mph - N/A   Overcast
2:34 AM 26.1 °F 18.4 °F 25.0 °F 96% 30.07 in 1.8 mi NNW 6.9 mph - N/A   Overcast
2:56 AM 26.1 °F 17.6 °F 25.0 °F 96% 30.15 in 1.5 mi NW 8.1 mph - N/A   Overcast
3:56 AM 26.1 °F 19.4 °F 25.0 °F 96% 30.14 in 1.2 mi NNW 5.8 mph - N/A   Overcast
4:56 AM 26.1 °F 18.4 °F 25.0 °F 96% 30.13 in 1.2 mi NNW 6.9 mph - N/A   Overcast
5:22 AM 26.1 °F 18.4 °F 25.0 °F 96% 30.05 in 2.0 mi NNW 6.9 mph - N/A   Overcast
5:31 AM 26.1 °F 19.4 °F 25.0 °F 96% 30.05 in 1.5 mi NW 5.8 mph - N/A   Overcast
5:53 AM 26.6 °F 20.0 °F 24.8 °F 93% 30.05 in 2.0 mi NW 5.8 mph - N/A   Overcast
5:56 AM 26.1 °F 19.4 °F 25.0 °F 96% 30.12 in 2.0 mi NNW 5.8 mph - N/A   Overcast
6:19 AM 26.1 °F 20.5 °F 25.0 °F 96% 30.04 in 1.2 mi WNW 4.6 mph - N/A   Overcast
6:20 AM 26.1 °F 19.4 °F 25.0 °F 96% 30.04 in 0.5 mi WNW 5.8 mph - N/A   Overcast
6:22 AM 26.1 °F 18.4 °F 25.0 °F 96% 30.04 in 0.8 mi WNW 6.9 mph - N/A   Overcast
6:56 AM 26.1 °F 20.5 °F 24.1 °F 92% 30.11 in 0.8 mi NW 4.6 mph - N/A   Overcast
7:56 AM 27.0 °F 21.6 °F 25.0 °F 92% 30.11 in 0.5 mi NW 4.6 mph - N/A Fog Light Freezing Fog
8:56 AM 27.0 °F 21.6 °F 25.0 °F 92% 30.10 in 0.5 mi NW 4.6 mph - N/A   Overcast
9:00 AM 27.0 °F 21.6 °F 25.0 °F 92% 30.02 in 0.5 mi NW 4.6 mph - N/A Fog Light Freezing Fog
9:56 AM 27.0 °F - 25.0 °F 92% 30.09 in 4.0 mi Calm Calm - N/A   Overcast
10:30 AM 27.0 °F - 25.0 °F 92% 30.01 in 2.0 mi Calm Calm - N/A   Overcast
10:56 AM 27.0 °F 23.0 °F 25.0 °F 92% 30.08 in 2.0 mi WNW 3.5 mph - N/A   Overcast
11:56 AM 28.0 °F 22.8 °F 26.1 °F 92% 30.05 in 7.0 mi Variable 4.6 mph - N/A   Overcast
12:38 PM 28.0 °F 22.8 °F 26.1 °F 92% 29.95 in 2.0 mi Variable 4.6 mph - N/A   Overcast
12:56 PM 28.0 °F 24.2 °F 26.1 °F 92% 30.03 in 2.0 mi NW 3.5 mph - N/A   Overcast
1:56 PM 28.0 °F 24.2 °F 26.1 °F 92% 30.00 in 2.0 mi NNW 3.5 mph - N/A   Overcast
2:56 PM 28.9 °F 25.2 °F 27.0 °F 92% 29.98 in 2.0 mi NW 3.5 mph - N/A   Overcast
3:14 PM 28.9 °F 25.2 °F 27.0 °F 92% 29.91 in 2.0 mi NW 3.5 mph - N/A   Overcast
3:56 PM 28.9 °F 25.2 °F 27.0 °F 92% 29.96 in 7.0 mi NNW 3.5 mph - N/A   Overcast
4:56 PM 28.9 °F 22.8 °F 27.0 °F 92% 29.94 in 7.0 mi WNW 5.8 mph - N/A   Overcast
5:17 PM 28.9 °F 23.9 °F 27.0 °F 92% 29.86 in 5.0 mi WNW 4.6 mph - N/A   Overcast
5:56 PM 28.9 °F 22.8 °F 27.0 °F 92% 29.92 in 8.0 mi WNW 5.8 mph - N/A   Overcast
6:24 PM 28.9 °F 23.9 °F 27.0 °F 92% 29.84 in 8.0 mi NW 4.6 mph - N/A   Overcast
6:56 PM 28.9 °F 25.2 °F 27.0 °F 92% 29.91 in 8.0 mi NW 3.5 mph - N/A   Overcast
7:56 PM 28.9 °F 23.9 °F 27.0 °F 92% 29.89 in 7.0 mi WNW 4.6 mph - N/A   Overcast
8:07 PM 28.9 °F 23.9 °F 27.0 °F 92% 29.82 in 6.0 mi WNW 4.6 mph - N/A   Overcast
8:56 PM 28.9 °F 23.9 °F 27.0 °F 92% 29.88 in 5.0 mi NW 4.6 mph - N/A   Overcast
9:14 PM 28.9 °F 23.9 °F 27.0 °F 92% 29.80 in 2.0 mi NW 4.6 mph - N/A   Overcast
9:24 PM 28.9 °F 23.9 °F 27.0 °F 92% 29.80 in 4.0 mi NW 4.6 mph - N/A   Overcast
9:32 PM 28.9 °F 25.2 °F 27.0 °F 92% 29.80 in 1.8 mi NNW 3.5 mph - N/A   Overcast
9:45 PM 28.9 °F - 28.0 °F 96% 29.80 in 0.8 mi Calm Calm - 0.00 in   Overcast
9:56 PM 28.9 °F - 27.0 °F 92% 29.86 in 0.8 mi Calm Calm - 0.00 in   Mist
10:20 PM 28.9 °F 25.2 °F 27.0 °F 92% 29.78 in 1.0 mi WNW 3.5 mph - 0.00 in   Mist
10:31 PM 28.9 °F 23.9 °F 27.0 °F 92% 29.78 in 0.5 mi West 4.6 mph - 0.00 in Fog Light Freezing Fog
10:54 PM 28.4 °F 24.6 °F 28.4 °F 100% 29.77 in 1.5 mi WNW 3.5 mph - 0.00 in   Overcast
10:56 PM 28.9 °F 23.9 °F 28.0 °F 96% 29.84 in 1.5 mi NW 4.6 mph - 0.00 in   Overcast
11:07 PM 28.9 °F 22.8 °F 28.0 °F 96% 29.76 in 0.8 mi NW 5.8 mph - 0.00 in Rain Light Freezing Rain
11:28 PM 28.9 °F 23.9 °F 27.0 °F 92% 29.75 in 1.2 mi NNW 4.6 mph - 0.00 in   Overcast
11:36 PM 28.9 °F 23.9 °F 27.0 °F 92% 29.75 in 3.0 mi NNW 4.6 mph - 0.00 in   Overcast
11:54 PM 28.4 °F 24.6 °F 26.6 °F 93% 29.74 in 2.0 mi NNW 3.5 mph - 0.00 in Rain Light Freezing Rain
11:56 PM 28.9 °F 23.9 °F 28.0 °F 96% 29.81 in 2.0 mi NNW 4.6 mph - 0.00 in Rain Light Freezing Rain